EHI
0 0 0 0 0 0 0 0 0 0 0 0 1 3 2 2 2 2 1 1 2 3 6 11 13 12 12 14 17 22 24 23 22 19 14 11 9 7 6 7 8 8 6 6
0 0 0 0 0 0 0 0 0 0 0 1 2 3 3 2 2 3 3 3 3 4 6 11 12 10 9 10 13 16 17 17 17 16 14 12 9 7 6 7 7 6 5 5
0 0 0 0 0 0 0 0 0 0 0 1 2 3 3 3 3 4 4 4 3 3 5 9 9 7 6 7 9 11 14 14 13 13 12 12 10 7 6 7 7 5 4 5
0 0 0 0 0 0 0 0 0 0 0 0 1 1 3 3 3 4 5 4 2 2 3 6 7 6 6 8 8 11 14 14 12 10 9 9 9 7 6 7 8 7 6 6
0 0 0 0 0 0 0 0 0 0 0 0 0 1 2 3 4 5 5 3 1 0 1 3 6 7 9 9 9 10 13 15 13 10 7 7 7 6 7 9 10 9 7 6
0 0 0 0 0 0 0 0 0 0 0 0 0 0 1 3 3 4 3 2 1 0 1 2 5 9 11 11 10 9 11 14 14 11 8 7 7 7 9 12 13 10 7 6
0 0 0 0 0 0 0 0 0 0 0 0 0 0 1 2 3 3 2 1 0 0 1 2 5 9 12 12 11 9 9 10 11 9 8 9 10 9 10 13 13 9 7 6
0 0 0 0 0 0 0 0 0 0 0 0 0 0 0 1 1 2 1 0 0 1 1 2 5 8 11 12 12 10 8 8 7 6 7 10 11 10 9 10 9 7 6 5
0 0 0 0 0 0 0 0 0 0 0 0 0 0 0 0 0 1 1 0 0 1 2 2 4 7 10 11 11 10 9 8 6 4 5 6 8 8 8 7 6 5 3 2
0 0 0 0 0 0 0 0 0 0 0 0 0 0 0 0 0 0 0 0 0 1 2 3 4 6 7 8 9 9 8 7 5 4 4 4 5 6 6 5 3 3 2 2
0 0 0 0 0 0 0 0 0 0 0 0 0 0 0 0 0 0 0 0 0 1 1 2 4 4 4 4 4 4 4 3 2 3 4 4 4 5 5 3 2 2 2 3
1 0 0 0 0 0 0 0 0 0 0 0 0 0 0 0 0 0 1 1 1 1 1 1 2 3 3 2 1 1 0 0 1 1 2 4 4 4 3 2 2 3 4 4
1 0 0 0 0 0 0 0 0 0 0 0 0 0 0 0 0 1 2 2 2 1 1 2 3 3 3 2 0 0 0 0 0 0 0 1 2 2 1 2 4 6 7 7
1 0 0 0 0 0 0 0 0 0 0 0 0 0 0 0 0 1 2 2 1 0 1 3 4 3 3 2 0 0 0 1 1 0 0 0 1 1 1 3 6 8 8 8
1 0 0 0 0 0 0 0 0 0 0 0 0 0 0 0 0 1 1 1 0 1 2 4 4 3 2 1 0 0 0 1 1 0 0 0 0 1 2 4 6 7 7 7
1 0 0 0 0 0 0 0 0 0 0 0 0 0 0 0 0 0 0 0 0 2 3 4 4 3 1 0 0 0 0 1 1 0 0 0 1 2 3 4 5 6 6 6
1 0 0 0 0 0 0 0 0 0 0 0 0 0 0 0 0 0 0 0 0 1 3 4 3 2 1 0 0 0 0 1 0 0 0 1 2 3 3 3 4 4 4 4
0 0 0 0 0 0 0 0 1 1 1 0 1 1 0 0 1 1 0 0 0 1 3 3 3 2 1 0 0 0 0 0 0 0 0 1 2 3 3 3 3 3 3 3
0 0 0 0 0 0 0 0 1 2 2 1 1 1 1 1 2 2 1 0 1 2 2 2 2 1 0 0 0 0 0 0 0 0 0 0 1 3 3 3 3 3 3 3
0 0 0 0 0 0 0 0 0 1 1 1 1 1 1 2 3 3 2 1 1 1 1 1 1 0 0 0 0 0 0 0 0 0 0 0 1 2 3 3 3 3 3 3
0 0 0 0 0 0 0 0 0 0 0 0 0 0 1 2 2 2 1 0 0 0 0 0 0 0 0 0 0 0 0 0 0 0 0 0 1 2 3 3 3 3 2 1
0 0 0 0 0 0 0 0 0 0 0 0 0 0 0 1 1 1 0 0 0 0 0 0 0 0 0 0 0 0 0 0 0 0 0 0 0 1 1 3 3 3 1 0
0 0 0 0 0 0 0 0 0 0 0 0 0 0 0 0 0 0 0 0 0 0 0 0 0 0 0 0 0 0 0 0 0 0 0 0 0 0 1 2 2 2 1 0
0 0 0 0 0 0 0 0 0 0 0 0 0 0 0 0 0 0 0 0 0 0 1 1 1 0 0 0 0 0 0 0 1 1 0 0 0 0 0 1 1 1 0 0
0 0 0 0 0 0 0 0 0 0 0 0 0 0 0 0 0 0 0 0 0 0 1 2 2 1 0 0 0 1 1 1 1 1 0 0 0 0 0 0 0 0 0 0
0 0 0 0 0 0 0 0 0 0 0 0 0 0 0 0 0 0 0 0 1 1 1 2 2 1 0 0 1 2 2 1 1 1 0 0 0 0 0 0 0 0 0 0
Wind_Speed
6 8 6 4 5 7 6 6 6 3 3 4 5 4 3 4 5 4 3 3 3 2 2 3 3 3 3 3 4 4 4 3 3 2 2 2 2 1 1 1 0 1 2 2
8 7 4 4 5 7 8 7 5 2 3 4 3 3 3 4 4 3 3 3 3 2 2 2 2 3 3 4 4 4 4 4 3 2 2 1 1 1 1 0 1 1 2 2
6 1 1 5 6 7 8 7 5 3 4 6 5 5 5 5 4 4 3 3 3 2 3 3 3 3 4 4 4 3 3 4 4 3 2 2 1 1 1 1 1 1 2 2
5 2 4 6 5 6 5 3 4 5 6 4 6 4 5 5 5 4 3 3 3 2 3 3 3 3 4 4 4 4 4 4 4 3 2 2 2 1 1 1 0 1 2 2
3 2 5 5 3 5 3 2 5 6 6 4 5 5 3 4 3 3 2 2 2 1 2 2 3 3 3 3 4 4 4 3 3 3 3 3 2 1 1 1 1 1 1 1
2 2 3 3 2 2 3 5 6 7 7 5 1 4 1 1 1 1 1 1 1 1 1 1 2 3 3 3 4 4 4 3 3 3 2 2 2 1 1 1 1 1 1 1
4 5 3 3 3 5 6 5 4 6 5 2 3 3 2 2 1 1 1 1 1 1 1 2 2 3 3 3 3 3 4 3 3 3 3 2 2 2 2 1 1 1 0 0
3 4 3 2 3 3 4 7 5 4 3 0 3 1 3 3 2 1 1 1 2 2 2 2 2 2 3 3 3 3 3 3 2 2 2 1 2 2 1 1 1 1 1 0
2 1 4 2 2 5 4 4 5 6 5 4 2 3 4 3 2 1 1 2 2 1 2 2 2 3 2 2 2 2 2 2 2 1 1 1 1 1 1 2 2 1 1 1
3 2 2 3 4 3 4 3 4 5 4 4 2 2 1 2 1 1 1 1 1 1 1 2 2 2 3 2 2 2 2 2 1 2 2 1 2 2 2 2 1 1 2 2
2 3 3 4 3 2 3 4 4 5 5 5 3 2 4 2 1 0 1 2 2 2 2 2 2 2 2 2 3 2 2 2 2 2 2 1 2 2 2 2 2 2 1 2
1 4 3 2 2 2 4 3 4 5 3 4 4 2 6 3 1 1 1 1 1 2 2 2 2 2 2 2 2 2 2 3 2 2 2 2 2 3 2 2 1 1 1 2
1 4 5 6 6 5 3 2 4 4 4 4 5 1 5 2 1 1 1 1 2 2 2 2 2 2 2 2 2 2 2 2 2 2 2 2 2 2 2 2 2 2 2 2
3 3 4 4 3 1 1 1 3 5 4 3 3 2 1 1 0 1 1 1 2 3 3 2 2 2 1 1 1 2 2 3 3 2 2 2 2 2 2 2 2 2 2 2
3 3 2 2 1 1 2 2 3 4 5 5 3 2 1 0 0 0 1 1 2 2 3 3 2 1 1 1 1 1 1 2 2 2 2 2 2 2 2 2 2 2 2 2
2 3 3 3 3 2 3 4 4 4 4 3 2 0 2 2 1 1 1 1 1 1 2 2 2 1 1 1 1 1 1 2 2 2 2 1 2 2 2 2 2 1 1 1
4 4 4 4 3 5 4 3 4 3 2 3 2 1 2 1 1 0 0 0 1 0 1 1 1 1 1 1 1 2 2 2 2 2 2 1 1 1 2 2 2 1 1 1
5 5 4 4 4 5 3 2 1 2 1 0 1 2 2 1 1 1 0 1 1 0 0 1 1 1 1 1 2 2 3 3 2 2 1 1 2 2 2 2 1 1 1 1
6 6 4 4 5 3 4 3 2 2 2 2 2 1 1 2 2 3 2 1 1 1 1 1 2 2 1 1 1 2 2 2 2 2 1 1 2 2 2 1 1 1 1 2
6 6 6 5 5 4 3 3 1 4 3 4 2 1 1 2 2 3 3 0 1 0 1 1 1 1 1 1 1 2 2 2 2 2 2 2 2 2 2 2 2 1 2 2
6 6 7 7 6 1 4 2 3 4 2 3 2 1 2 2 2 2 1 0 1 1 1 1 2 1 1 1 2 2 1 1 1 1 1 1 1 2 2 1 1 2 2 1
5 4 5 5 6 1 4 3 1 4 3 2 1 1 1 1 2 2 1 1 0 1 1 2 2 2 1 1 2 2 2 2 1 1 1 1 1 1 1 2 2 2 2 2
4 3 2 2 2 5 3 2 3 2 0 1 1 2 2 1 1 1 1 0 0 1 2 2 2 2 2 2 2 2 2 2 2 1 1 1 1 1 2 2 3 3 3 3
2 1 3 2 2 2 2 2 1 1 1 1 1 2 2 2 1 1 1 1 1 2 2 2 3 3 2 2 3 3 2 2 2 2 2 2 2 2 2 3 3 3 3 3
2 3 4 4 1 1 2 1 2 2 1 1 0 1 2 2 2 1 1 2 2 2 2 2 3 3 3 2 3 2 2 3 3 3 2 3 3 3 3 3 2 3 2 3
4 4 4 2 0 2 1 2 2 2 1 1 1 1 1 2 2 2 2 2 2 2 2 3 3 4 3 3 2 2 2 3 3 3 3 3 3 3 3 3 2 1 2 1
Wind_Direction
208 233 239 244 254 284 280 268 255 237 170 221 232 228 190 191 199 202 209 212 211 204 162 152 165 179 181 177 170 169 167 162 174 168 182 180 185 191 194 180 121 261 273 255
217 230 255 260 248 255 257 254 246 210 180 220 219 222 188 198 203 213 230 229 233 220 177 163 174 183 191 189 184 178 173 166 178 172 184 199 204 203 170 183 168 249 263 267
252 300 255 244 234 243 252 255 256 233 197 204 214 203 185 179 186 197 228 243 245 231 204 203 198 186 189 186 187 177 173 174 179 177 175 168 172 201 174 213 206 240 255 251
246 239 240 241 245 254 262 264 249 227 223 206 225 249 158 176 186 197 219 231 240 231 215 210 198 187 193 187 180 175 172 177 176 181 180 192 209 219 237 239 200 226 243 263
223 228 244 247 275 271 300 273 235 232 237 240 219 251 141 168 206 216 226 236 233 221 210 215 192 181 181 179 173 167 168 171 176 190 197 215 223 240 242 223 181 246 232 267
238 201 256 282 276 245 220 217 209 221 229 227 208 263 139 144 253 241 230 216 166 136 169 190 168 158 159 161 162 161 164 169 181 196 203 215 218 227 223 236 225 237 223 252
188 174 175 218 228 187 226 244 231 216 218 163 135 249 71 56 29 287 216 164 133 121 143 148 157 154 151 155 159 165 166 175 189 193 200 210 216 221 219 234 221 266 258 245
227 180 155 203 269 262 237 265 280 285 291 155 175 238 87 89 81 73 107 126 128 123 129 138 150 156 154 151 163 166 171 180 183 189 196 208 231 240 224 224 250 246 270 293
277 144 132 158 257 270 244 259 309 280 270 257 177 142 135 120 102 103 124 120 106 117 121 127 138 136 129 134 142 156 169 170 167 179 191 204 228 252 235 206 223 222 245 245
280 238 161 155 202 192 293 295 261 273 283 280 217 202 119 132 118 139 141 122 120 118 126 128 118 120 118 125 127 128 142 153 172 194 210 211 211 223 222 224 226 250 263 265
260 246 201 202 239 277 212 228 270 281 291 288 291 64 65 87 93 139 140 131 149 159 159 144 135 129 132 138 142 144 148 166 181 194 197 213 213 214 219 221 227 231 248 247
277 271 256 208 107 296 285 291 273 274 276 274 287 68 90 85 83 68 78 98 121 134 144 130 117 127 137 148 155 156 165 171 179 186 189 187 202 209 212 214 227 230 236 239
259 246 241 188 177 191 233 265 268 265 264 269 274 102 117 121 120 103 96 89 108 117 125 128 133 138 150 158 174 173 173 174 189 181 178 186 206 203 206 219 234 236 236 247
271 263 285 312 340 336 237 239 248 256 262 270 276 299 169 161 149 131 157 144 136 132 135 139 143 150 160 168 178 176 173 183 194 192 194 201 207 208 223 233 237 243 243 243
260 253 263 290 296 281 283 282 254 258 284 287 306 308 12 60 285 250 180 152 150 139 144 144 133 131 182 179 159 167 185 188 197 203 206 202 202 209 215 229 241 242 240 236
239 247 242 236 205 228 262 263 254 262 264 258 251 317 56 71 83 118 142 169 169 141 138 146 151 173 203 201 181 185 180 179 196 215 224 211 207 208 213 224 228 236 236 245
212 227 251 248 232 250 243 246 242 232 229 234 252 51 98 93 99 168 158 213 201 168 154 175 191 216 228 225 225 210 197 190 199 215 217 215 220 216 220 222 211 217 228 238
228 239 253 257 243 248 78 77 243 222 158 327 44 94 118 104 97 99 95 243 230 288 245 213 221 233 237 220 220 218 204 198 210 220 225 238 231 232 232 221 233 239 235 240
223 234 249 251 244 233 146 146 193 220 145 103 122 118 111 128 168 139 107 226 253 278 262 232 229 229 219 204 202 219 212 207 218 219 229 250 249 233 233 232 232 232 230 249
191 226 243 242 258 256 98 105 230 239 181 124 136 159 167 204 233 95 98 193 250 236 223 223 216 205 204 193 190 215 205 218 237 240 242 247 251 240 239 239 242 231 222 237
192 207 230 239 246 224 74 112 207 237 77 117 160 177 196 215 359 69 106 162 249 238 222 212 216 211 213 195 200 218 214 236 256 259 248 246 249 233 228 227 222 231 232 238
236 224 219 238 240 180 97 155 226 30 68 152 172 191 194 148 88 119 138 148 208 249 235 222 227 231 208 198 213 221 219 246 258 256 253 245 240 234 190 198 215 221 230 227
253 305 292 284 16 77 126 109 64 52 108 174 193 206 206 200 165 131 132 163 257 266 254 240 235 237 220 213 224 232 229 239 239 238 238 241 222 215 220 219 216 222 225 241
197 264 252 229 175 132 122 106 71 10 338 301 229 209 211 220 220 217 229 239 271 269 257 242 242 241 239 228 229 234 227 218 225 230 228 220 216 224 219 235 234 243 254 257
274 222 237 234 211 179 151 85 19 341 307 294 271 214 212 223 230 226 246 261 270 274 265 247 246 253 254 239 234 232 216 209 224 233 235 230 224 227 231 233 269 265 277 304
232 240 250 268 317 274 280 323 322 311 296 258 235 205 208 221 230 246 258 262 272 274 262 256 256 258 260 251 240 234 221 214 223 232 237 242 238 232 236 226 213 205 255 263